Location: Unspecified
(42.1900°N, 71.3291°W)
Time: 04:56:26
(UTC-04:00)

Cosmos 1674 - Visible Passes

Search period start: 24 July 2017 00:00
Search period end: 03 August 2017 00:00
Orbit: 498 x 523 km, 82.5° (Epoch: 23 July)

Date Brightness Start Highest point End Pass type
(mag) Time Alt. Az. Time Alt. Az. Time Alt. Az.
24 Jul 2.8 04:52:27 10° N 04:56:19 84° E 05:00:10 10° S visible
25 Jul 3.2 04:35:51 10° N 04:39:41 65° E 04:43:30 10° SSE visible
26 Jul 3.7 04:19:17 10° N 04:23:02 49° E 04:26:47 10° SSE visible
27 Jul 4.2 04:02:45 10° N 04:06:23 38° ENE 04:10:00 10° SSE visible
28 Jul 4.6 03:46:16 10° NNE 03:49:43 30° ENE 03:53:09 10° SE visible
29 Jul 5.0 03:29:50 10° NNE 03:33:03 24° ENE 03:36:14 10° SE visible
30 Jul 5.3 03:13:28 10° NNE 03:16:21 20° ENE 03:19:12 10° ESE visible
30 Jul 3.7 04:48:38 10° NNW 04:51:57 27° W 04:55:15 10° SSW visible
31 Jul 5.5 02:57:12 10° NNE 02:59:38 16° ENE 03:02:04 10° ESE visible
31 Jul 3.4 04:31:50 10° NNW 04:35:22 35° W 04:38:53 10° SSW visible
01 Aug 5.6 02:41:08 10° NE 02:42:55 13° ENE 02:44:41 10° E visible
01 Aug 3.0 04:15:04 10° NNW 04:18:47 45° W 04:21:31 17° SSW visible
02 Aug 5.9 02:25:53 10° ENE 02:26:10 10° ENE 02:26:29 10° ENE visible
02 Aug 2.7 03:58:21 10° NNW 04:02:10 59° W 04:04:14 25° SSW visible
